"Platform","Muskegon M20 ReCON Buoy"
"NDBC ID","45161"
"Latitude (deg)",43.18105
"Longitude (deg)",-86.35933
"Water Depth (m)",23
"Sensor Device","Cisco AP1242AG WiFi Radio"
"Sensor Type","Received Signal Level (RSL) at base station"
"Sensor Units","decibels per milliwatt"
"Measurement","A sample"
"Time means","Time at sample (UTC time zone)"

"Note:","This data was collected for research purposes."
"Note:","Minimal quality checking has been performed so data may contain known or unknown errors."
"Note:","Data provided by NOAA. Please credit NOAA."
"Note:","For more info see www.glerl.noaa.gov/res/recon"

"Time (UTC)","RSL"
"YYYY/MM/DD HH:MM","dBm"
2017/04/04 18:06, -82
2017/04/04 18:10, -88
2017/04/04 18:22, -83
2017/04/04 18:42, -81
2017/04/04 19:02, -83
2017/04/04 19:22, -79
2017/04/04 19:42, -85
2017/04/04 20:02, -81
2017/04/04 20:23, -80
2017/04/04 20:43, -79
2017/04/04 21:03, -82
2017/04/04 21:23, -81
2017/04/04 21:43, -84
2017/04/04 22:05, -84
2017/04/04 22:25, -81
2017/04/04 22:44, -81
2017/04/04 23:04, -80
2017/04/04 23:24, -79
2017/04/04 23:44, -78
2017/04/05 00:04, -74
2017/04/05 00:24, -75
2017/04/05 00:44, -75
2017/04/05 01:04, -75
2017/04/05 01:24, -75
2017/04/05 01:44, -75
2017/04/05 02:04, -74
2017/04/05 02:24, -80
2017/04/05 02:44, -78
2017/04/05 03:04, -78
2017/04/05 03:24, -78
2017/04/05 03:44, -81
2017/04/05 04:04, -78
2017/04/05 04:24, -77
2017/04/05 04:44, -82
2017/04/05 05:04, -80
2017/04/05 05:24, -80
2017/04/05 05:44, -80
2017/04/05 06:04, -79
2017/04/05 06:24, -84
2017/04/05 06:44, -80
2017/04/05 07:04, -80
2017/04/05 07:24, -81
2017/04/05 07:44, -80
2017/04/05 08:04, -80
2017/04/05 08:24, -80
2017/04/05 08:44, -82
2017/04/05 12:42, -89
2017/04/05 13:03, -88
2017/04/05 13:24, -87
2017/04/05 13:43, -88
2017/04/05 14:04, -87
2017/04/05 14:24, -90
2017/04/05 14:42, -85
2017/04/05 15:04, -88
2017/04/05 15:24, -86
2017/04/05 15:44, -89
2017/04/05 16:05, -87
2017/04/05 16:26, -91
2017/04/05 16:46, -87
2017/04/05 17:05, -87
2017/04/05 17:26, -89
2017/04/05 17:46, -89
2017/04/05 18:06, -87
2017/04/05 18:27, -91
2017/04/05 18:44, -91
2017/04/05 19:05, -87
2017/04/05 19:24, -87
2017/04/05 19:45, -86
2017/04/05 20:05, -87
2017/04/05 20:25, -91
2017/04/05 20:46, -93
2017/04/05 21:05, -87
2017/04/05 21:26, -93
2017/04/05 21:47, -90
2017/04/05 22:06, -89
2017/04/05 22:26, -88
2017/04/05 22:46, -88
2017/04/05 23:05, -87
2017/04/05 23:25, -89
2017/04/05 23:45, -91
2017/04/06 00:06, -90
2017/04/06 00:26, -89
2017/04/06 00:45, -88
2017/04/06 01:06, -90
2017/04/06 01:26, -90
2017/04/06 01:47, -93
2017/04/06 02:08, -87
2017/04/06 02:29, -89
2017/04/06 12:46, -91
2017/04/06 13:07, -92
2017/04/06 13:26, -90
2017/04/06 13:47, -90
2017/04/06 14:07, -91
2017/04/06 14:28, -89
2017/04/06 15:07, -90
2017/04/06 15:25, -88
2017/04/06 15:46, -92
2017/04/06 16:06, -87
2017/04/06 16:24, -88
2017/04/06 16:45, -90
2017/04/06 17:06, -88
2017/04/06 17:27, -83
2017/04/06 17:47, -89
2017/04/06 18:08, -89
2017/04/06 18:29, -92
